MIDAS 5 DEB, 18603

Orbit data source: Space-Track

MIDAS 5 DEB, 18603 is space debris in LEO originally from a launch on Mon, 09 Apr 1962 UTC via an ATLAS AGENA B launch vehicle from the Air Force Western Test Range (AFWTR). Debris objects in space refer to the collection of defunct objects orbiting the Earth. Examples of debris include non-operational satellites, rocket bodies, and fragments generated from explosions, collisions, or faulty payload assembly.

Loading next visibility...
Identifier
18603, 1962-010G
Orbit
LEO
Last TLE update
4 days ago
Origin
Manufacturer
MIT-LL
Mission
Spacecraft
Bus & Motor
WESTFORD DRAG, Unknown motor
Mass
~1 kg wet, ~1 kg dry
Launch date (UTC)
1962-04-09 (63 years ago)
Launch vehicle
ATLAS AGENA B
Launch site
Air Force Western Test Range (AFWTR)
Object type
Payload
Rocket body
Debris
Shape & HBR
Cyl, 0.5 m
Radar Cross Section
0.094 m², Medium (>0.1 m² and < 1m²)

Expand to show TLE details & history

TLE from 4 days ago
0 MIDAS 5 DEB
1 18603U 62010G   25126.15848986 -.00000014  00000-0 -37466-2 0  9997
2 18603  86.6841  24.8647 0285268 201.5942 319.5037  9.41008445340255
Epoch: 2025-05-06T03:48Z
Definitive object data (Epoch: 2025-05-06T03:48:13.523Z)
Latitude
21.05234°
Longitude
-77.7258°
Altitude
2,898.736 km
Speed
6.627 km/s
True Right ascension
13h 34m 22s
True Declination
20° 57' 50"
Sunlit
Object was in full shadow at TLE epoch
Visualization TLE readout
Latitude
-35.68484°
Longitude
-74.58702°
Altitude
2,854.548 km
Speed
6.66 km/s
Apparent Right ascension
13h 17m 51s
Apparent Declination
-37° 36' 17"
Sunlit
Object is in full shadow
Visualization observer readout
Local Sidereal Time
00:33:09
Azimuth
281.303° WNW
Elevation
-80.991°
Doppler factor
1
Orbital elements
Apogee altitude
3,366.893 km
Perigee altitude
2,826.324 km
Semi-major axis
9,474.746 km
Eccentricity
0.0285268
Inclination
86.6841°
RAAN
24.8647°
Arg. of periapsis
201.5942°
True anomaly
317.32229°
Mean anomaly
319.5037°
Eccentric anomaly
318.41894°
Mean motion
2.35338 °/min
BSTAR
-0.0037466
Orbital period
152.97 mins
Loading maneuver chart data...
Loading SW <> Apogee altitude chart data...
Loading historical data...
Loading historical data...
Loading historical data...
Loading historical data...
Loading historical data...
Loading historical data...
Loading historical data...

MIDAS 5 DEB Visibility forecast

Observer location: undefined°, undefined°

Span
Click to sort rows by Start time (UTC) header in descending order
Start Az.
Max El. time (UTC)
Max El. Az.
Max El.
End time (UTC)
End Az.
34 mins2025-05-09 17:24:41.040Z179.059° S2025-05-09 17:41:41.040Z222.202° SW44.945°2025-05-09 17:58:41.040Z2.422° NNE
24 mins2025-05-09 20:06:41.040Z251.918° W2025-05-09 20:18:41.040Z298.727° NW22.047°2025-05-09 20:30:41.040Z346.068° N
13 mins2025-05-10 01:52:41.040Z26.026° NE2025-05-10 01:58:41.040Z50.116° ENE14.112°2025-05-10 02:05:41.040Z79.032° E
29 mins2025-05-10 04:22:41.040Z1.283° NNE2025-05-10 04:37:41.040Z89.854° E42.964°2025-05-10 04:51:41.040Z166.281° S
23 mins2025-05-10 06:57:41.040Z341.833° N2025-05-10 07:08:41.040Z291.94° WNW28.493°2025-05-10 07:20:41.040Z235.399° WSW
10 mins2025-05-10 14:07:41.040Z69.618° E2025-05-10 14:11:41.040Z55.223° ENE12.613°2025-05-10 14:17:41.040Z33.492° NE
|